Terug naar catalogus

STARLINK-5896

ActiefCommunicatieVLEO
NORAD 55930·PAYLOAD·🇺🇸 United States

Gelanceerd Mar 17, 2023 vanaf Vandenberg Space Force Base

Loading…

Volgende Passages (komende 24 uur)

TLE

VersSource: CelesTrak SupGP

Epoch: Sep 15, 2026, 01:23 UTC

1 55930C 23037S   26258.05812500 -.00031281  00000+0 -26214-2 0  2582
2 55930  70.0015 166.9386 0003003 271.3309 215.1639 14.98347286    17

Volg STARLINK-5896 in realtime met AllMySat

Download on the App Store